TimeCST,TemperatureF,Dew PointF,Humidity,Sea Level PressureIn,VisibilityMPH,Wind Direction,Wind SpeedMPH,Gust SpeedMPH,PrecipitationIn,Events,Conditions,WindDirDegrees,DateUTC
12:13 AM,-16.6,-20.2,84,30.32,10.0,ESE,4.6,-,N/A,,Clear,120,2012-12-26 06:13:00
12:33 AM,-16.6,-20.2,84,30.32,10.0,Calm,Calm,-,N/A,,Clear,0,2012-12-26 06:33:00
12:52 AM,-16.6,-20.2,84,30.32,10.0,Calm,Calm,-,N/A,,Clear,0,2012-12-26 06:52:00
1:13 AM,-16.6,-20.2,84,30.32,10.0,Calm,Calm,-,N/A,,Clear,0,2012-12-26 07:13:00
1:33 AM,-14.8,-20.2,77,30.32,10.0,Calm,Calm,-,N/A,,Clear,0,2012-12-26 07:33:00
1:53 AM,-16.6,-20.2,84,30.32,10.0,Calm,Calm,-,N/A,,Clear,0,2012-12-26 07:53:00
2:13 AM,-16.6,-20.2,84,30.32,10.0,Calm,Calm,-,N/A,,Clear,0,2012-12-26 08:13:00
2:33 AM,-14.8,-20.2,77,30.32,10.0,Calm,Calm,-,N/A,,Clear,0,2012-12-26 08:33:00
2:52 AM,-14.8,-18.4,84,30.32,10.0,Calm,Calm,-,N/A,,Clear,0,2012-12-26 08:52:00
3:13 AM,-14.8,-20.2,77,30.31,10.0,Calm,Calm,-,N/A,,Clear,0,2012-12-26 09:13:00
3:33 AM,-16.6,-20.2,84,30.32,10.0,Calm,Calm,-,N/A,,Clear,0,2012-12-26 09:33:00
3:52 AM,-16.6,-20.2,84,30.32,10.0,Calm,Calm,-,N/A,,Clear,0,2012-12-26 09:52:00
4:13 AM,-16.6,-20.2,84,30.32,10.0,Calm,Calm,-,N/A,,Scattered Clouds,0,2012-12-26 10:13:00
4:33 AM,-14.8,-18.4,84,30.32,10.0,Calm,Calm,-,N/A,,Mostly Cloudy,0,2012-12-26 10:33:00
4:52 AM,-14.8,-18.4,84,30.31,10.0,Calm,Calm,-,N/A,,Scattered Clouds,0,2012-12-26 10:52:00
5:13 AM,-11.2,-16.6,77,30.30,3.0,Calm,Calm,-,N/A,,Haze,0,2012-12-26 11:13:00
5:33 AM,-11.2,-16.6,77,30.30,10.0,Calm,Calm,-,N/A,,Clear,0,2012-12-26 11:33:00
5:53 AM,-11.2,-14.8,84,30.30,10.0,Calm,Calm,-,N/A,,Clear,0,2012-12-26 11:53:00
6:13 AM,-9.4,-14.8,77,30.30,10.0,Calm,Calm,-,N/A,,Clear,0,2012-12-26 12:13:00
6:33 AM,-9.4,-14.8,77,30.31,10.0,Calm,Calm,-,N/A,,Clear,0,2012-12-26 12:33:00
6:53 AM,-9.4,-14.8,77,30.31,10.0,Calm,Calm,-,N/A,,Clear,0,2012-12-26 12:53:00
7:13 AM,-9.4,-14.8,77,30.30,10.0,Calm,Calm,-,N/A,,Clear,0,2012-12-26 13:13:00
7:33 AM,-9.4,-13.0,84,30.30,10.0,Calm,Calm,-,N/A,,Clear,0,2012-12-26 13:33:00
7:53 AM,-9.4,-11.2,92,30.30,10.0,Calm,Calm,-,N/A,,Clear,0,2012-12-26 13:53:00
8:13 AM,-7.6,-11.2,84,30.29,10.0,Calm,Calm,-,N/A,,Clear,0,2012-12-26 14:13:00
8:33 AM,-7.6,-11.2,84,30.30,10.0,Calm,Calm,-,N/A,,Clear,0,2012-12-26 14:33:00
8:53 AM,-5.8,-9.4,84,30.30,10.0,Calm,Calm,-,N/A,,Clear,0,2012-12-26 14:53:00
9:13 AM,-5.8,-9.4,84,30.30,10.0,Calm,Calm,-,N/A,,Clear,0,2012-12-26 15:13:00
9:33 AM,-4.0,-7.6,85,30.30,10.0,Calm,Calm,-,N/A,,Clear,0,2012-12-26 15:33:00
9:53 AM,-4.0,-7.6,85,30.29,10.0,Calm,Calm,-,N/A,,Clear,0,2012-12-26 15:53:00
10:13 AM,-2.2,-5.8,85,30.28,10.0,Calm,Calm,-,N/A,,Clear,0,2012-12-26 16:13:00
10:32 AM,-2.2,-5.8,85,30.28,10.0,Calm,Calm,-,N/A,,Clear,0,2012-12-26 16:32:00
10:53 AM,-0.4,-4.0,85,30.28,10.0,Calm,Calm,-,N/A,,Clear,0,2012-12-26 16:53:00
11:12 AM,-0.4,-4.0,85,30.27,10.0,Calm,Calm,-,N/A,,Clear,0,2012-12-26 17:12:00
11:33 AM,1.4,-2.2,85,30.26,10.0,Calm,Calm,-,N/A,,Clear,0,2012-12-26 17:33:00
11:53 AM,1.4,-2.2,85,30.25,7.0,Calm,Calm,-,N/A,Snow,Light Snow,0,2012-12-26 17:53:00
12:12 PM,3.2,-0.4,85,30.25,10.0,Calm,Calm,-,N/A,,Clear,0,2012-12-26 18:12:00
12:33 PM,3.2,-0.4,85,30.24,10.0,Calm,Calm,-,N/A,,Clear,0,2012-12-26 18:33:00
12:53 PM,6.8,1.4,79,30.24,10.0,Calm,Calm,-,N/A,,Clear,0,2012-12-26 18:53:00
1:12 PM,6.8,1.4,79,30.23,10.0,Calm,Calm,-,N/A,,Clear,0,2012-12-26 19:12:00
1:33 PM,6.8,1.4,79,30.23,10.0,Calm,Calm,-,N/A,,Clear,0,2012-12-26 19:33:00
1:47 PM,8.6,1.4,73,30.23,10.0,Calm,Calm,-,N/A,,Clear,0,2012-12-26 19:47:00
2:13 PM,8.6,3.2,79,30.24,10.0,Calm,Calm,-,N/A,,Scattered Clouds,0,2012-12-26 20:13:00
2:32 PM,8.6,3.2,79,30.24,10.0,Calm,Calm,-,N/A,,Clear,0,2012-12-26 20:32:00
2:53 PM,8.6,3.2,79,30.24,10.0,Calm,Calm,-,N/A,,Clear,0,2012-12-26 20:53:00
3:13 PM,8.6,3.2,79,30.24,10.0,Calm,Calm,-,N/A,,Clear,0,2012-12-26 21:13:00
3:32 PM,8.6,3.2,79,30.24,10.0,Calm,Calm,-,N/A,,Clear,0,2012-12-26 21:32:00
3:53 PM,8.6,3.2,79,30.25,10.0,Calm,Calm,-,N/A,,Clear,0,2012-12-26 21:53:00
4:13 PM,8.6,3.2,79,30.25,10.0,Calm,Calm,-,N/A,,Clear,0,2012-12-26 22:13:00
4:32 PM,8.6,3.2,79,30.25,10.0,Calm,Calm,-,N/A,,Clear,0,2012-12-26 22:32:00
4:53 PM,8.6,3.2,79,30.25,10.0,Calm,Calm,-,N/A,,Scattered Clouds,0,2012-12-26 22:53:00
5:13 PM,8.6,3.2,79,30.25,10.0,Calm,Calm,-,N/A,,Mostly Cloudy,0,2012-12-26 23:13:00
5:32 PM,8.6,3.2,79,30.24,10.0,Calm,Calm,-,N/A,,Scattered Clouds,0,2012-12-26 23:32:00
5:53 PM,8.6,3.2,79,30.24,10.0,Calm,Calm,-,N/A,,Clear,0,2012-12-26 23:53:00
6:13 PM,6.8,3.2,85,30.23,10.0,Calm,Calm,-,N/A,,Clear,0,2012-12-27 00:13:00
6:32 PM,6.8,3.2,85,30.24,10.0,Calm,Calm,-,N/A,,Clear,0,2012-12-27 00:32:00
6:53 PM,5.0,1.4,85,30.23,10.0,Calm,Calm,-,N/A,,Clear,0,2012-12-27 00:53:00
7:13 PM,1.4,-0.4,92,30.23,10.0,Calm,Calm,-,N/A,,Clear,0,2012-12-27 01:13:00
7:32 PM,3.2,-0.4,85,30.23,10.0,Calm,Calm,-,N/A,,Clear,0,2012-12-27 01:32:00
7:53 PM,1.4,-2.2,85,30.23,10.0,Calm,Calm,-,N/A,,Clear,0,2012-12-27 01:53:00
8:13 PM,-0.4,-2.2,92,30.23,10.0,Calm,Calm,-,N/A,,Clear,0,2012-12-27 02:13:00
8:32 PM,-0.4,-4.0,85,30.23,10.0,Calm,Calm,-,N/A,,Clear,0,2012-12-27 02:32:00
8:53 PM,-2.2,-4.0,92,30.23,10.0,Calm,Calm,-,N/A,,Clear,0,2012-12-27 02:53:00
9:13 PM,-2.2,-5.8,85,30.24,10.0,Calm,Calm,-,N/A,,Clear,0,2012-12-27 03:13:00
9:32 PM,-4.0,-7.6,85,30.23,10.0,Calm,Calm,-,N/A,,Scattered Clouds,0,2012-12-27 03:32:00
9:53 PM,-4.0,-7.6,85,30.23,10.0,Calm,Calm,-,N/A,,Mostly Cloudy,0,2012-12-27 03:53:00
10:13 PM,-2.2,-7.6,78,30.23,7.0,Calm,Calm,-,N/A,Snow,Light Snow,0,2012-12-27 04:13:00
10:33 PM,-2.2,-5.8,85,30.23,7.0,Calm,Calm,-,N/A,Snow,Light Snow,0,2012-12-27 04:33:00
10:53 PM,-2.2,-5.8,85,30.23,10.0,Calm,Calm,-,N/A,,Overcast,0,2012-12-27 04:53:00
11:13 PM,-2.2,-5.8,85,30.23,5.0,Calm,Calm,-,N/A,Snow,Light Snow,0,2012-12-27 05:13:00
11:33 PM,-2.2,-5.8,85,30.22,3.0,Calm,Calm,-,N/A,Snow,Light Snow,0,2012-12-27 05:33:00
11:53 PM,-2.2,-5.8,85,30.22,2.0,Calm,Calm,-,N/A,Snow,Light Snow,0,2012-12-27 05:53:00